Location: Caixon
(43.4106°N, 0.0273°E)
Time: 16:21:16
(UTC+00:00)

SL-4 R/B - Pass Details

Date: 16 October 2021
Orbit: 427 x 661 km, 51.6° (Epoch: 28 November)

Event Time Altitude Azimuth Distance (km) Brightness Sun altitude
Exits shadow 03:46:12 30° 18° (NNE) 1,049 3.6 -27.6°
Drops below altitude 10° 03:48:58 10° 50° (NE) 1,861 5.5 -27.1°
Sets 03:51:16 0° 59° (ENE) 2,714 6.7 -26.7°
